sat.trackr.live / text

‹ back to catalog

SAOCOM 1A

NORAD 43641 · 2018-076A

PAYLOAD ACTIVE UNKNOWN

§ Identity

Operator
Country
ARGN
Launch date
2018-10-08
Launch site
AFWTR
Launch vehicle
Mass (kg)
RCS (m²)

External: N2YO · Heavens-Above · Gunter

§ Orbital elements

Epoch: 2026-09-13T04:04:28.572960Z

Period
97.16 min
Inclination
97.8889°
Eccentricity
0.0001422
Mean motion
14.82144508 rev/d
Perigee alt
621.6 km
Apogee alt
623.6 km
Semi-major
7,000.7 km
B*
2.1414e-5
RAAN
81.6537°
Arg perigee
83.3641°
Mean anomaly
276.7734°
Rev number
42,913

§ Raw data

SAOCOM 1A1 43641U 18076A   26256.16977515  .00000118  00000+0  21414-4 0  99972 43641  97.8889  81.6537 0001422  83.3641 276.7734 14.82144508429135

JSON: /api/v1/satellites/43641 · /tle

For live sub-satellite position, see the globe view (requires WebGL).

§ Visibility from observer

Set your observer location to see the next 7 days of passes ≥ 10°. The values pass through the URL so the page stays shareable.

No JS? Fill the form by hand. The geolocation button needs JavaScript.

§ Radio — SatNOGS DB

ModeDescriptionDownlinkUplink
BPSK S-band telemetry 2.256 GHz

1 transmitter · refreshed weekly from db.satnogs.org